{"data":{"norad_id":68213,"intl_designator":"2026-053G","name":"STARLINK-37116","alt_names":[],"object_type":"PAYLOAD","status":"ACTIVE","operator":null,"country":"US","launch_date":"2026-03-17","launch_site_code":"AFWTR","launch_vehicle":null,"mission":null,"orbit_class":"UNKNOWN","rcs_meters":null,"size_class":null,"mass_kg":null,"dimensions":null,"purposes":["comms"],"wikipedia_slug":null,"has_3d_model":false,"image_url":null,"decayed_at":null,"tle_current":{"epoch":"2026-05-25T03:30:32.112000Z","epoch_age_seconds":59252,"freshness":"FRESH","line1":"1 68213U 26053G   26145.14620500  .00014829  00000+0  46062-3 0  9996","line2":"2 68213  97.2874  20.5725 0001759  92.6126 267.5318 15.33453299 11938","mean_motion":15.33453299,"eccentricity":0.0001759,"inclination_deg":97.2874,"raan_deg":20.5725,"arg_perigee_deg":92.6126,"mean_anomaly_deg":267.5318,"bstar":0.00046062,"rev_number":1193,"period_min":93.905696439471,"perigee_km":464.31468360494,"apogee_km":466.72228160372,"semimajor_km":6843.6554826043,"source":"CELESTRAK","updated_at":"2026-05-25T13:38:21.878558Z"}}}